Location: Grums
(59.3529°N, 13.1129°E)
Time: 22:28:33
(UTC+02:00)

Envisat - Pass Details

Date: 06 October 2021
Orbit: 764 x 766 km, 98.2° (Epoch: 16 October)

Event Time Altitude Azimuth Distance (km) Brightness Sun altitude
Rises 05:43:35 0° 19° (NNE) 3,247 6.7 -13.6°
Reaches altitude 10° 05:46:06 10° 28° (NNE) 2,316 6.1 -13.3°
Maximum altitude 05:50:47 36° 95° (E) 1,210 4.7 -12.7°
Drops below altitude 10° 05:55:26 10° 161° (SSE) 2,301 5.6 -12.1°
Sets 05:57:55 0° 170° (S) 3,223 6.2 -11.8°
